Regional Weather Roundup
Issued by NWS

Home | Current Version | Previous Version | Graphics & Text | Print | Product List | Glossary On
Versions: 1 2 3 4 5 6 7 8 9 10 11 12 13 14 15 16 17 18 19 20 21 22 23 24 25 26 27 28 29 30 31 32 33 34 35 36 37 38 39 40 41 42 43 44 45 46 47 48 49 50
000
ASUS43 KMPX 270601
RWRMN
WEATHER ROUNDUP FOR MINNESOTA
NATIONAL WEATHER SERVICE TWIN CITIES/CHANHASSEN MN
100 AM CDT WED AUG 27 2014


NOTE: "FAIR" INDICATES FEW OR NO CLOUDS BELOW 12,000 FEET WITH NO
SIGNIFICANT WEATHER AND/OR OBSTRUCTIONS TO VISIBILITY. N/A MEANS
CURRENT SKY AND/OR WEATHER CONDITIONS ARE NOT AVAILABLE.

MNZ060>063-068>070-270700-
   Twin Cities Metro

CITY           SKY/WX    TMP DP  RH WIND       PRES   REMARKS
TWIN CITIES    LGT RAIN  65  57  75 NE7       30.19S
6HR MIN TEMP:  65; 6HR MAX TEMP:  72; 6HR PCP: TRACE;

ST PAUL        LGT RAIN  65  55  70 NE6       30.19S
CRYSTAL        LGT RAIN  64  56  75 NE5       30.18S
BLAINE         LGT RAIN  63  59  88 NE3       30.19S
LAKEVILLE      CLOUDY    63  59  88 CALM      30.18F
EDEN PRAIRIE   MOCLDY    64  57  78 N3        30.18S
6HR MIN TEMP:  64; 6HR MAX TEMP:  71; 6HR PCP: TRACE;

SOUTH ST PAUL  CLOUDY    65  54  66 NE3       30.18F
LAKE ELMO      CLOUDY    61  57  88 CALM      30.20S
$$
MNZ001>005-007-008-013>017-022>024-027-028-270700-
   Northwest Minnesota

CITY           SKY/WX    TMP DP  RH WIND       PRES   REMARKS
BEMIDJI        CLOUDY    50  50  99 CALM      30.19S FOG
HALLOCK        FAIR      54  48  82 SE9       30.15R
ROSEAU         FAIR      46  41  81 S5        30.18R
WARROAD        FAIR      46  43  87 S3        30.18S
THIEF RVR FALL FAIR      52  48  87 S5        30.18S
CROOKSTON      FAIR      52  50  93 S3        30.18S
FOSSTON        FAIR      46  45  93 CALM      30.20S
DETROIT LAKES  CLOUDY    59  55  88 S5        30.21S
MOORHEAD       FAIR      57  57 100 CALM      30.20S
PARK RAPIDS    CLOUDY    57  56  96 CALM      30.20R
MAHNOMEN       CLOUDY    56  55  95 S5        30.18F
$$
MNZ006-009>011-018-025>026-270700-
   North Central Minnesota

CITY           SKY/WX    TMP DP  RH WIND       PRES   REMARKS
BAUDETTE       FAIR      45  43  93 SW5       30.19R
FLAG ISLAND    FAIR      55  46  71 SW6       30.15S
INTL FALLS     FAIR      40  39  97 CALM      30.17S
6HR MIN TEMP:  39; 6HR MAX TEMP:  56;

WASKISH        FAIR      43  43 100 CALM      30.20S FOG
BIG FORK       FAIR      46  45  93 CALM      30.21S
LONGVILLE      FAIR      52  52 100 CALM      30.20S
GRAND RAPIDS   FAIR      52  48  87 CALM      30.21R
CRANE LAKE     FAIR      43  43 100 CALM      30.20R
ORR            FAIR      48  45  87 CALM      30.17R
COOK           FAIR      50  48  93 CALM      30.19S FOG
WALKER         CLOUDY    52  52  99 CALM      30.20S
$$
MNZ012-019>021-037-270700-
   Northeast Minnesota

CITY           SKY/WX    TMP DP  RH WIND       PRES   REMARKS
DULUTH         LGT RAIN  55  49  80 N5        30.19R
6HR MIN TEMP:  54; 6HR MAX TEMP:  63; 6HR PCP:  0.02;

ELY            FAIR      50  46  87 SW3       30.18R
HIBBING        FAIR      51  49  92 CALM      30.20R
EVELETH        FAIR      52  50  93 W5        30.21R
DULUTH HARBOR  FAIR      61  52  72 CALM      30.21R
TWO HARBORS    LGT RAIN  54  48  82 CALM      30.18R
SILVER BAY     RAIN      54  52  94 CALM      30.17R
GRAND MARAIS     N/A     56  51  84 CALM      30.15R
G MARAIS ARPRT FAIR      50  45  81 CALM      30.17S
$$
MNZ029>031-032-039>041-046>048-054>057-064-270700-
   West Central Minnesota

CITY           SKY/WX    TMP DP  RH WIND       PRES   REMARKS
FERGUS FALLS   CLOUDY    59  57  94 CALM      30.21S
WHEATON        CLOUDY    57  55  94 NE3       30.21R
MORRIS         MOCLDY    61  57  88 CALM      30.19F
ALEXANDRIA     CLOUDY    59  57  93 NW3       30.24R
ELBOW LAKE     LGT RAIN  57  56  97 CALM      30.20F
WADENA         CLOUDY    57  55  94 CALM      30.21R
GLENWOOD       CLOUDY    59  57  94 N5        30.22S
APPLETON       CLOUDY    61  57  88 CALM      30.19S
BENSON         CLOUDY    61  57  88 E3        30.20F
ORTONVILLE     CLOUDY    61  57  88 CALM      30.20S
MADISON        CLOUDY    63  61  94 CALM      30.20S
WILLMAR        MOCLDY    63  57  82 N3        30.21S
$$
MNZ033>034-036-042>043-049>051-058-059-270700-
   Central Minnesota

CITY           SKY/WX    TMP DP  RH WIND       PRES   REMARKS
ST CLOUD       CLOUDY    63  58  83 SW3       30.21R
6HR MIN TEMP:  62; 6HR MAX TEMP:  69; 6HR PCP:  0.01;

SAUK CENTRE    LGT RAIN  59  58  94 CALM      30.22R
PAYNESVILLE    HVY RAIN  58  56  95 CALM      30.21S
AITKIN         FAIR      57  52  82 CALM      30.20S
PINE RIVER     CLOUDY    55  55 100 CALM      30.24R
BRAINERD       LGT RAIN  56  54  93 CALM      30.22R
STAPLES        CLOUDY    55  55 100 CALM      30.22R
LONG PRAIRIE   RAIN      57  55  94 CALM      30.22R
LITTLE FALLS   DRIZZLE   57  54  88 CALM      30.21S
LITCHFIELD     CLOUDY    63  61  94 CALM      30.21R
BUFFALO        CLOUDY    61  56  85 CALM      30.20F
MAPLE LAKE     CLOUDY    61  59  93 CALM      30.21R
$$
MNZ037-044-045-052-053-270700-
   East Central Minnesota

CITY           SKY/WX    TMP DP  RH WIND       PRES   REMARKS
PRINCETON      CLOUDY    61  57  88 CALM      30.19F
MORA           RAIN      55  52  88 CALM      30.23R
CAMBRIDGE      MOCLDY    63  54  72 CALM      30.18S
RUSH CITY      MOCLDY    58  55  89 NE3       30.21S
MOOSE LAKE     LGT RAIN  54  52  94 CALM      30.19S
HINCKLEY       LGT RAIN  57  54  88 CALM      30.20S
CLOQUET        RAIN      54  50  87 W3        30.21R
MCGREGOR       MOCLDY    54  52  94 CALM      30.22R
$$
MNZ071>073-080-081-089-090-097-098-270700-
   Southwest Minnesota

CITY           SKY/WX    TMP DP  RH WIND       PRES   REMARKS
MONTEVIDEO     CLOUDY    61  57  88 CALM      30.21R
GRANITE FALLS  CLOUDY    61  57  86 CALM      30.21S
CANBY          CLOUDY    60  58  90 CALM      30.21R
MARSHALL       CLOUDY    61  57  88 N3        30.19S
REDWOOD FALLS  CLOUDY    63  58  83 E3        30.18F
OLIVIA         CLOUDY    63  55  77 CALM      30.18F
PIPESTONE      FAIR      61  55  82 CALM      30.19S
WINDOM         CLOUDY    61  57  88 CALM      30.19F
WORTHINGTON    FAIR      57  55  94 CALM      30.20S
JACKSON        FAIR      57  54  88 NE3       30.19F
TRACY          CLOUDY    63  59  88 CALM      30.19F
SLAYTON        FAIR      61  58  90 CALM      30.20S
$$
MNZ065>067-074>077-082>085-091>093-270700-
   South Central Minnesota

CITY           SKY/WX    TMP DP  RH WIND       PRES   REMARKS
MANKATO        CLOUDY    63  55  77 CALM      30.19R
NEW ULM          N/A     64  59  82 CALM      30.19S
ST JAMES       CLOUDY    63  59  88 CALM      30.20S
FAIRMONT       FAIR      55  52  88 N5        30.18F
GLENCOE        CLOUDY    64  57  80 CALM      30.19S
FARIBAULT      FAIR      64  57  77 CALM      30.19S
OWATONNA       FAIR      61  57  88 CALM      30.19S
WASECA         MOCLDY    57  54  88 CALM      30.21R
ALBERT LEA     FAIR      57  57 100 CALM      30.19S
$$
MNZ078>079-086>088-094>096-270700-
   Southeast Minnesota

CITY           SKY/WX    TMP DP  RH WIND       PRES   REMARKS
ROCHESTER      MOCLDY    61  55  81 NW5       30.20R
6HR MIN TEMP:  59; 6HR MAX TEMP:  68; 6HR PCP: TRACE;

RED WING       CLOUDY    63  57  82 NW3       30.18R
STANTON        LGT RAIN  62  59  91 CALM      30.18R
DODGE CENTER   CLOUDY    61  59  94 CALM      30.19S
WINONA         MOCLDY    61  57  88 CALM      30.18R
AUSTIN         FAIR      57  55  94 CALM      30.18S
PRESTON        MOCLDY    59  59 100 CALM      30.19S
$$
ABBREVIATIONS USED IN REMARKS
   TC - TEMPERATURES IN CELSIUS
  WCI - WIND CHILL INDEX
   HX - HEAT INDEX
  VSB - VISIBILITY
$$


USA.gov is the U.S. government's official web portal to all federal, state and local government web resources and services.